Weather in Kurylivka

Ukraine / Sumi District     51°04′18″N   33°23′12″E
temp.,
°C
wind,
m/s
gust,
m/s
humid.,
%
clouds,
%
prec.,
mm/h
press.,
hPa
HPBL,
m
21 october, thu
thu2100:00+11ssw91966100 0.0 1016667
03:00+10sw81767100 0.0 1015485
06:00+9ssw8177684 0.0 1013403
09:00+10ssw81775100 0.0 1012497
12:00+13ssw91562100 0.0 1012612
15:00+15ssw9155699 0.0 1010775
18:00+13ssw91758100 0.0 1008743
21:00+13ssw9195799 0.0 1006696
22 october, fri
fri2200:00+11ssw8177484 0.0 1006542
03:00+11sw71565100 0.0 1006446
06:00+11sw7156499 0.0 1006516
09:00+12wsw7136596 0.0 1008860
12:00+14w8135137 0.0 10101352
15:00+15w712465 0.0 10111648
18:00+11sw511545 0.0 1011265
21:00+10sw5136018 0.0 1012308
23 october, sat
sat2300:00+10wsw4862100 0.0 1012271
03:00+11wsw7136285 0.4 1012838
06:00+9wsw613650 0.0 1012449
09:00+8wsw611620 0.0 1012800
12:00+10w9135154 0.0 10141838
15:00+10w8125297 0.1 10151798
18:00+8w511535 0.0 1016380
21:00+6w511635 0.0 1018421
24 october, sun
sun2400:00+4wsw49755 0.0 1018267
03:00+3wsw498060 0.0 1019224
06:00+4w5118299 0.0 1019524
09:00+4w51077100 0.0 1020752
12:00+5wnw6977100 0.1 1021952
15:00+5nw71270100 0.4 10201422
18:00+3nw81275100 0.3 10221118
21:00+2nnw7137770 0.3 1024953
25 october, mon
mon2500:00+1nnw7128325 0.0 1026704
03:00−1n6118460 0.0 1027577
06:00−1nnw59878 0.0 1030329
09:00−1n59835 0.0 1032325
12:00+3nne46575 0.0 1033967
15:00+5n45495 0.0 10331146
18:00+1nne33610 0.0 103546
21:000ne23660 0.0 103535